Time,TemperatureF,DewpointF,PressureIn,WindDirection,WindDirectionDegrees,WindSpeedMPH,WindSpeedGustMPH,Humidity,HourlyPrecipIn,Conditions,Clouds,dailyrainin,SoftwareType,DateUTC
2013-02-19 00:12:00,28.1,17.0,30.05,NNW,329,3.0,7.0,63,0.00,,,0.00,weatherlink.com 1.10,2013-02-19 06:12:00,
2013-02-19 00:27:00,27.8,17.0,30.05,WNW,285,1.0,5.0,63,0.00,,,0.00,weatherlink.com 1.10,2013-02-19 06:27:00,
2013-02-19 00:42:00,27.6,17.0,30.05,WNW,285,0.0,4.0,64,0.00,,,0.00,weatherlink.com 1.10,2013-02-19 06:42:00,
2013-02-19 00:57:00,27.3,17.0,30.05,NW,308,2.0,7.0,65,0.00,,,0.00,weatherlink.com 1.10,2013-02-19 06:57:00,
2013-02-19 01:12:00,27.0,17.0,30.05,WNW,300,1.0,2.0,66,0.00,,,0.00,weatherlink.com 1.10,2013-02-19 07:12:00,
2013-02-19 01:27:00,26.7,17.0,30.06,WNW,301,0.0,1.0,67,0.00,,,0.00,weatherlink.com 1.10,2013-02-19 07:27:00,
2013-02-19 01:42:00,26.3,17.0,30.06,NW,309,0.0,1.0,68,0.00,,,0.00,weatherlink.com 1.10,2013-02-19 07:42:00,
2013-02-19 01:57:00,26.2,17.0,30.06,NW,317,0.0,3.0,69,0.00,,,0.00,weatherlink.com 1.10,2013-02-19 07:57:00,
2013-02-19 02:12:00,26.4,17.0,30.07,WNW,289,0.0,6.0,68,0.00,,,0.00,weatherlink.com 1.10,2013-02-19 08:12:00,
2013-02-19 02:28:00,26.3,17.0,30.06,WNW,297,1.0,3.0,68,0.00,,,0.00,weatherlink.com 1.10,2013-02-19 08:28:00,
2013-02-19 02:43:00,26.2,17.0,30.07,NW,318,1.0,5.0,69,0.00,,,0.00,weatherlink.com 1.10,2013-02-19 08:43:00,
2013-02-19 02:58:00,26.0,17.0,30.08,WNW,287,1.0,5.0,69,0.00,,,0.00,weatherlink.com 1.10,2013-02-19 08:58:00,
2013-02-19 03:13:00,25.7,17.0,30.09,NW,325,0.0,3.0,70,0.00,,,0.00,weatherlink.com 1.10,2013-02-19 09:13:00,
2013-02-19 03:28:00,25.6,17.0,30.09,NW,309,2.0,3.0,70,0.00,,,0.00,weatherlink.com 1.10,2013-02-19 09:28:00,
2013-02-19 03:43:00,25.7,17.0,30.09,WNW,302,0.0,4.0,70,0.00,,,0.00,weatherlink.com 1.10,2013-02-19 09:43:00,
2013-02-19 03:58:00,25.5,17.0,30.09,WNW,302,0.0,5.0,70,0.00,,,0.00,weatherlink.com 1.10,2013-02-19 09:58:00,
2013-02-19 04:13:00,25.2,17.0,30.10,WNW,302,1.0,4.0,71,0.00,,,0.00,weatherlink.com 1.10,2013-02-19 10:13:00,
2013-02-19 04:28:00,25.0,17.0,30.10,WNW,282,2.0,4.0,71,0.00,,,0.00,weatherlink.com 1.10,2013-02-19 10:28:00,
2013-02-19 04:43:00,24.7,17.0,30.11,WNW,300,1.0,3.0,72,0.00,,,0.00,weatherlink.com 1.10,2013-02-19 10:43:00,
2013-02-19 04:58:00,24.6,17.0,30.11,NW,306,0.0,7.0,72,0.00,,,0.00,weatherlink.com 1.10,2013-02-19 10:58:00,
2013-02-19 05:13:00,24.4,17.0,30.13,WNW,300,1.0,8.0,72,0.00,,,0.00,weatherlink.com 1.10,2013-02-19 11:13:00,
2013-02-19 05:28:00,24.2,17.0,30.14,NNW,340,1.0,7.0,73,0.00,,,0.00,weatherlink.com 1.10,2013-02-19 11:28:00,
2013-02-19 05:43:00,24.0,17.0,30.14,WNW,297,1.0,4.0,73,0.00,,,0.00,weatherlink.com 1.10,2013-02-19 11:43:00,
2013-02-19 05:58:00,23.9,17.0,30.15,NW,312,1.0,7.0,74,0.00,,,0.00,weatherlink.com 1.10,2013-02-19 11:58:00,
2013-02-19 06:13:00,23.7,17.0,30.15,WNW,301,0.0,7.0,74,0.00,,,0.00,weatherlink.com 1.10,2013-02-19 12:13:00,
2013-02-19 06:28:00,23.4,17.0,30.16,NW,326,0.0,4.0,75,0.00,,,0.00,weatherlink.com 1.10,2013-02-19 12:28:00,
2013-02-19 06:43:00,23.1,16.0,30.17,West,273,2.0,6.0,75,0.00,,,0.00,weatherlink.com 1.10,2013-02-19 12:43:00,
2013-02-19 06:58:00,22.8,16.0,30.18,WNW,295,2.0,5.0,76,0.00,,,0.00,weatherlink.com 1.10,2013-02-19 12:58:00,
2013-02-19 07:13:00,22.5,15.0,30.19,NW,309,0.0,8.0,72,0.00,,,0.00,weatherlink.com 1.10,2013-02-19 13:13:00,
2013-02-19 07:28:00,22.4,14.0,30.19,NNW,343,2.0,16.0,69,0.00,,,0.00,weatherlink.com 1.10,2013-02-19 13:28:00,
2013-02-19 07:43:00,22.5,13.0,30.20,NNW,328,0.0,8.0,67,0.00,,,0.00,weatherlink.com 1.10,2013-02-19 13:43:00,
2013-02-19 07:59:00,22.5,12.0,30.20,NW,309,3.0,8.0,65,0.00,,,0.00,weatherlink.com 1.10,2013-02-19 13:59:00,
2013-02-19 08:14:00,22.7,11.0,30.21,NW,307,4.0,9.0,61,0.00,,,0.00,weatherlink.com 1.10,2013-02-19 14:14:00,
2013-02-19 08:29:00,22.9,10.0,30.22,WNW,287,5.0,13.0,57,0.00,,,0.00,weatherlink.com 1.10,2013-02-19 14:29:00,
2013-02-19 08:44:00,22.8,9.0,30.23,WNW,296,1.0,10.0,56,0.00,,,0.00,weatherlink.com 1.10,2013-02-19 14:44:00,
2013-02-19 08:59:00,22.9,9.0,30.23,NW,314,6.0,11.0,55,0.00,,,0.00,weatherlink.com 1.10,2013-02-19 14:59:00,
2013-02-19 09:14:00,23.2,8.0,30.24,SSW,211,9.0,13.0,52,0.00,,,0.00,weatherlink.com 1.10,2013-02-19 15:14:00,
2013-02-19 09:29:00,23.6,8.0,30.25,WNW,293,5.0,14.0,52,0.00,,,0.00,weatherlink.com 1.10,2013-02-19 15:29:00,
2013-02-19 09:44:00,24.6,9.0,30.26,WNW,300,4.0,12.0,52,0.00,,,0.00,weatherlink.com 1.10,2013-02-19 15:44:00,
2013-02-19 09:59:00,25.2,9.0,30.26,NW,309,3.0,9.0,51,0.00,,,0.00,weatherlink.com 1.10,2013-02-19 15:59:00,
2013-02-19 10:14:00,26.1,10.0,30.27,WNW,296,2.0,5.0,50,0.00,,,0.00,weatherlink.com 1.10,2013-02-19 16:14:00,
2013-02-19 10:29:00,26.2,9.0,30.28,NNW,330,3.0,9.0,49,0.00,,,0.00,weatherlink.com 1.10,2013-02-19 16:29:00,
2013-02-19 10:44:00,26.1,9.0,30.29,West,274,5.0,10.0,48,0.00,,,0.00,weatherlink.com 1.10,2013-02-19 16:44:00,
2013-02-19 10:59:00,26.6,8.0,30.29,WNW,291,4.0,8.0,46,0.00,,,0.00,weatherlink.com 1.10,2013-02-19 16:59:00,
2013-02-19 11:14:00,27.0,8.0,30.29,NNW,341,0.0,12.0,45,0.00,,,0.00,weatherlink.com 1.10,2013-02-19 17:14:00,
2013-02-19 11:29:00,27.0,7.0,30.29,NW,317,2.0,10.0,43,0.00,,,0.00,weatherlink.com 1.10,2013-02-19 17:29:00,
2013-02-19 11:44:00,28.2,7.0,30.29,WNW,298,5.0,7.0,40,0.00,,,0.00,weatherlink.com 1.10,2013-02-19 17:44:00,
2013-02-19 11:59:00,28.4,7.0,30.29,WNW,302,1.0,11.0,40,0.00,,,0.00,weatherlink.com 1.10,2013-02-19 17:59:00,
2013-02-19 12:14:00,29.6,7.0,30.30,WNW,294,4.0,8.0,38,0.00,,,0.00,weatherlink.com 1.10,2013-02-19 18:14:00,
2013-02-19 12:29:00,29.8,5.0,30.29,NW,309,4.0,11.0,35,0.00,,,0.00,weatherlink.com 1.10,2013-02-19 18:29:00,
2013-02-19 12:44:00,30.5,8.0,30.29,NW,316,2.0,13.0,38,0.00,,,0.00,weatherlink.com 1.10,2013-02-19 18:44:00,
2013-02-19 12:59:00,31.3,8.0,30.29,WNW,284,0.0,7.0,37,0.00,,,0.00,weatherlink.com 1.10,2013-02-19 18:59:00,
2013-02-19 13:14:00,31.9,8.0,30.28,NW,312,2.0,12.0,36,0.00,,,0.00,weatherlink.com 1.10,2013-02-19 19:14:00,
2013-02-19 13:29:00,32.3,8.0,30.28,WNW,282,3.0,11.0,36,0.00,,,0.00,weatherlink.com 1.10,2013-02-19 19:29:00,
2013-02-19 13:44:00,32.5,6.0,30.28,NNE,12,0.0,9.0,33,0.00,,,0.00,weatherlink.com 1.10,2013-02-19 19:44:00,
2013-02-19 13:59:00,33.1,9.0,30.28,WNW,288,0.0,11.0,36,0.00,,,0.00,weatherlink.com 1.10,2013-02-19 19:59:00,
2013-02-19 14:14:00,33.5,5.0,30.29,North,350,2.0,9.0,30,0.00,,,0.00,weatherlink.com 1.10,2013-02-19 20:14:00,
2013-02-19 14:29:00,33.1,3.0,30.28,WNW,300,1.0,11.0,28,0.00,,,0.00,weatherlink.com 1.10,2013-02-19 20:29:00,
2013-02-19 14:44:00,33.8,5.0,30.28,ENE,65,4.0,9.0,30,0.00,,,0.00,weatherlink.com 1.10,2013-02-19 20:44:00,
2013-02-19 14:59:00,34.1,6.0,30.28,WNW,298,3.0,9.0,30,0.00,,,0.00,weatherlink.com 1.10,2013-02-19 20:59:00,
2013-02-19 15:29:00,33.6,4.0,30.28,NW,306,1.0,7.0,29,0.00,,,0.00,weatherlink.com 1.10,2013-02-19 21:29:00,
2013-02-19 15:44:00,33.9,5.0,30.27,NW,304,0.0,7.0,29,0.00,,,0.00,weatherlink.com 1.10,2013-02-19 21:44:00,
2013-02-19 15:59:00,33.6,2.0,30.28,WNW,300,1.0,6.0,26,0.00,,,0.00,weatherlink.com 1.10,2013-02-19 21:59:00,
2013-02-19 16:15:00,33.1,2.0,30.28,NW,319,0.0,7.0,26,0.00,,,0.00,weatherlink.com 1.10,2013-02-19 22:15:00,
2013-02-19 16:30:00,33.2,2.0,30.28,NW,322,2.0,8.0,27,0.00,,,0.00,weatherlink.com 1.10,2013-02-19 22:30:00,
2013-02-19 16:45:00,32.6,3.0,30.27,WNW,302,1.0,6.0,28,0.00,,,0.00,weatherlink.com 1.10,2013-02-19 22:45:00,
2013-02-19 17:00:00,32.2,2.0,30.27,NW,310,1.0,5.0,27,0.00,,,0.00,weatherlink.com 1.10,2013-02-19 23:00:00,
2013-02-19 17:15:00,31.7,3.0,30.27,NW,309,0.0,5.0,29,0.00,,,0.00,weatherlink.com 1.10,2013-02-19 23:15:00,
2013-02-19 17:30:00,31.2,4.0,30.27,NW,319,1.0,4.0,31,0.00,,,0.00,weatherlink.com 1.10,2013-02-19 23:30:00,
2013-02-19 17:45:00,30.4,4.0,30.27,WNW,301,0.0,6.0,32,0.00,,,0.00,weatherlink.com 1.10,2013-02-19 23:45:00,
2013-02-19 18:00:00,29.7,4.0,30.27,NW,307,0.0,1.0,33,0.00,,,0.00,weatherlink.com 1.10,2013-02-20 00:00:00,
2013-02-19 18:15:00,29.2,3.0,30.27,NW,321,1.0,2.0,32,0.00,,,0.00,weatherlink.com 1.10,2013-02-20 00:15:00,
2013-02-19 18:30:00,28.8,4.0,30.27,WNW,302,0.0,2.0,34,0.00,,,0.00,weatherlink.com 1.10,2013-02-20 00:30:00,
2013-02-19 18:45:00,28.3,3.0,30.27,WNW,282,0.0,3.0,34,0.00,,,0.00,weatherlink.com 1.10,2013-02-20 00:45:00,
2013-02-19 19:00:00,27.8,3.0,30.28,NW,304,0.0,4.0,35,0.00,,,0.00,weatherlink.com 1.10,2013-02-20 01:00:00,
2013-02-19 19:15:00,27.3,4.0,30.29,NNW,331,0.0,3.0,37,0.00,,,0.00,weatherlink.com 1.10,2013-02-20 01:15:00,
2013-02-19 19:30:00,27.0,4.0,30.29,WNW,286,2.0,3.0,37,0.00,,,0.00,weatherlink.com 1.10,2013-02-20 01:30:00,
2013-02-19 19:45:00,26.6,5.0,30.29,NW,309,0.0,1.0,39,0.00,,,0.00,weatherlink.com 1.10,2013-02-20 01:45:00,
2013-02-19 20:15:00,25.1,5.0,30.31,WNW,290,0.0,0.0,43,0.00,,,0.00,weatherlink.com 1.10,2013-02-20 02:15:00,
2013-02-19 20:30:00,25.0,5.0,30.31,WNW,287,0.0,1.0,42,0.00,,,0.00,weatherlink.com 1.10,2013-02-20 02:30:00,
2013-02-19 20:45:00,24.8,5.0,30.31,NW,304,0.0,1.0,43,0.00,,,0.00,weatherlink.com 1.10,2013-02-20 02:45:00,
2013-02-19 21:00:00,24.6,5.0,30.32,NW,306,0.0,1.0,44,0.00,,,0.00,weatherlink.com 1.10,2013-02-20 03:00:00,
2013-02-19 21:15:00,24.3,6.0,30.33,WNW,298,0.0,2.0,45,0.00,,,0.00,weatherlink.com 1.10,2013-02-20 03:15:00,
2013-02-19 21:30:00,24.0,6.0,30.32,NNW,347,0.0,1.0,46,0.00,,,0.00,weatherlink.com 1.10,2013-02-20 03:30:00,
2013-02-19 21:45:00,23.6,5.0,30.30,NNW,329,0.0,1.0,45,0.00,,,0.00,weatherlink.com 1.10,2013-02-20 03:45:00,
2013-02-19 22:01:00,24.1,5.0,30.31,WNW,302,0.0,2.0,44,0.00,,,0.00,weatherlink.com 1.10,2013-02-20 04:01:00,
2013-02-19 22:15:00,23.9,5.0,30.32,WNW,295,0.0,2.0,45,0.00,,,0.00,weatherlink.com 1.10,2013-02-20 04:15:00,
2013-02-19 22:30:00,23.8,5.0,30.33,NW,316,0.0,3.0,44,0.00,,,0.00,weatherlink.com 1.10,2013-02-20 04:30:00,
2013-02-19 22:45:00,23.6,5.0,30.34,NW,307,0.0,1.0,44,0.00,,,0.00,weatherlink.com 1.10,2013-02-20 04:45:00,
2013-02-19 23:00:00,23.1,5.0,30.33,NW,307,3.0,3.0,45,0.00,,,0.00,weatherlink.com 1.10,2013-02-20 05:00:00,
2013-02-19 23:15:00,23.1,5.0,30.34,NW,309,0.0,3.0,45,0.00,,,0.00,weatherlink.com 1.10,2013-02-20 05:15:00,
2013-02-19 23:30:00,22.4,4.0,30.34,West,265,0.0,0.0,46,0.00,,,0.00,weatherlink.com 1.10,2013-02-20 05:30:00,
2013-02-19 23:45:00,22.4,4.0,30.34,NW,307,0.0,2.0,45,0.00,,,0.00,weatherlink.com 1.10,2013-02-20 05:45:00,